Overview Statistics Trail Chart Weather Telemetry Raw packets
 

This is the latest recevied weather packets stored in our database for station/object S51UL-6. If no packets are shown the sender has not sent any weather packets the latest 10 day(s).

<< 27 28 29 30 31 32 33 >>
Time Temp. Humidity Pressure Rain* Wind** Luminosity Snow
1788457561 22.22° C 62% 1019.3 hPa 0 mm - - -
1788457260 22.22° C 62% 1019.3 hPa 0 mm - - -
1788456960 22.78° C 61% 1019.3 hPa 0 mm - - -
1788456660 22.78° C 60% 1019.4 hPa 0 mm - - -
1788456060 23.33° C 59% 1019.3 hPa 0 mm - - -
1788455460 23.89° C 57% 1019.1 hPa 0 mm - - -
1788455163 24.44° C 56% 1019.1 hPa 0 mm - - -
1788454560 24.44° C 54% 1019.3 hPa 0 mm - - -
1788454261 25° C 53% 1019.2 hPa 0 mm - - -
1788453960 25° C 53% 1019.3 hPa 0 mm - - -
1788453661 25.56° C 52% 1019.2 hPa 0 mm - - -
1788452461 26.67° C 48% 1019.1 hPa 0 mm - - -
1788452161 27.22° C 48% 1019.2 hPa 0 mm - - -
1788451861 27.22° C 47% 1019.2 hPa 0 mm - - -
1788451262 27.78° C 46% 1019.3 hPa 0 mm - - -
1788450961 27.78° C 46% 1019.5 hPa 0 mm - - -
1788450661 28.33° C 45% 1019.3 hPa 0 mm - - -
1788450361 28.33° C 45% 1019.5 hPa 0 mm - - -
1788450061 28.33° C 44% 1019.4 hPa 0 mm - - -
1788449761 28.33° C 43% 1019.6 hPa 0 mm - - -
1788449461 28.89° C 43% 1019.6 hPa 0 mm - - -
1788449161 28.89° C 43% 1019.5 hPa 0 mm - - -
1788448861 28.89° C 44% 1019.6 hPa 0 mm - - -
1788448561 28.89° C 43% 1019.6 hPa 0 mm - - -
1788448261 28.89° C 43% 1019.5 hPa 0 mm - - -

* Rain latest hour (hover to see other rain measurements)
** Current wind speed in m/s (hover to see current wind gust speed)